FW8870 Weather Reports


Display with metric or nautical units.
time (UTC)temp
F
wind
direction
speed
MPH
gust
MPH
rain 1hr
in
rain 24hr
in
rain mn
in
humidity
%
barometer
mb
20220119102347 41 285 0.0 0.0 0.00 0.00 0.00 99 1025.5
20220119101846 41 285 0.0 0.0 0.00 0.00 0.00 99 1025.3
20220119101345 41 285 0.0 0.0 0.00 0.00 0.00 99 1025.1
20220119100844 41 285 0.0 0.0 0.00 0.00 0.00 99 1025.3
20220119100342 41 285 0.0 0.0 0.00 0.00 0.00 99 1025.2
20220119095840 41 285 0.0 0.0 0.00 0.00 0.00 99 1025.2
20220119095339 41 285 0.0 0.0 0.00 0.00 0.00 99 1025.3
20220119094838 41 285 0.0 0.0 0.00 0.00 0.00 99 1025.2
20220119094336 41 286 0.0 0.0 0.00 0.00 0.00 99 1025.2
20220119093835 41 285 0.0 0.0 0.00 0.00 0.00 99 1025.2
20220119093334 41 286 0.0 0.0 0.00 0.00 0.00 99 1025.3
20220119092832 41 286 0.0 0.0 0.00 0.00 0.00 99 1025.1
20220119092331 41 286 0.0 0.0 0.00 0.00 0.00 99 1025.0
20220119091829 41 286 0.0 0.0 0.00 0.00 0.00 99 1025.1
20220119091328 41 286 0.0 0.0 0.00 0.00 0.00 99 1025.1
20220119090827 41 286 0.0 0.0 0.00 0.00 0.00 99 1025.0
20220119090327 41 286 0.0 0.0 0.00 0.00 0.00 99 1025.2
20220119085826 41 286 0.0 0.0 0.00 0.00 0.00 99 1025.0
20220119085324 41 286 0.0 0.0 0.00 0.00 0.00 99 1025.0
20220119084823 41 286 0.0 0.0 0.00 0.00 0.00 99 1024.9
20220119084322 42 286 0.0 0.0 0.00 0.00 0.00 99 1024.9
20220119083821 42 286 0.0 0.0 0.00 0.00 0.00 99 1025.0
20220119083319 42 276 0.0 0.0 0.00 0.00 0.00 99 1025.1
20220119082818 42 276 0.0 0.0 0.00 0.00 0.00 99 1025.1
20220119082317 42 276 0.0 0.0 0.00 0.00 0.00 99 1025.0
20220119081815 42 276 0.0 0.0 0.00 0.00 0.00 99 1024.9
20220119081315 42 276 0.0 0.0 0.00 0.00 0.00 99 1024.7
20220119080814 42 276 0.0 0.0 0.00 0.00 0.00 99 1024.6
20220119080313 42 276 0.0 0.0 0.00 0.00 0.00 99 1024.5
20220119075811 42 276 0.0 0.0 0.00 0.59 0.59 99 1024.6
20220119075310 42 276 0.0 0.0 0.00 0.59 0.59 99 1024.5
20220119074808 42 278 0.0 0.0 0.00 0.59 0.59 99 1024.4
20220119074307 42 285 0.0 0.0 0.00 0.59 0.59 99 1024.5
20220119073806 42 72 0.0 0.0 0.00 0.59 0.59 99 1024.6
20220119073304 42 72 0.0 0.0 0.00 0.59 0.59 99 1024.4
20220119072803 42 71 0.0 0.0 0.00 0.59 0.59 99 1024.6
20220119072306 42 72 0.0 0.0 0.00 0.59 0.59 99 1024.4
20220119071802 42 72 0.0 0.0 0.00 0.59 0.59 99 1024.5
20220119071302 42 72 0.0 0.0 0.00 0.59 0.59 99 1024.5
20220119070802 42 72 0.0 0.0 0.00 0.59 0.59 99 1024.5
20220119070259 42 71 0.0 0.0 0.00 0.59 0.59 99 1024.4
20220119065756 42 72 0.0 0.0 0.00 0.59 0.59 99 1024.3
20220119065255 42 72 0.0 0.0 0.00 0.59 0.59 99 1024.4
20220119064754 42 71 0.0 0.0 0.00 0.59 0.59 99 1024.2
20220119064254 42 71 0.0 0.0 0.00 0.59 0.59 99 1024.4
20220119063752 42 71 0.0 0.0 0.00 0.59 0.59 99 1024.1
20220119063251 42 71 0.0 0.0 0.00 0.59 0.59 99 1024.2
20220119062750 42 72 0.0 0.0 0.00 0.59 0.59 99 1024.0
20220119062251 42 72 0.0 0.0 0.00 0.59 0.59 99 1023.7
20220119061750 42 277 0.0 0.0 0.00 0.59 0.59 99 1023.6
20220119061249 42 279 0.0 0.0 0.00 0.59 0.59 99 1023.9
20220119060749 42 279 0.0 0.0 0.00 0.59 0.59 99 1023.8
20220119060249 42 279 0.0 0.0 0.00 0.59 0.59 99 1023.9
20220119055747 42 279 0.0 0.0 0.00 0.59 0.59 99 1023.7
20220119055246 42 279 0.0 0.0 0.00 0.59 0.59 99 1023.8
20220119054745 42 279 0.0 0.0 0.00 0.59 0.59 99 1023.9
20220119054244 42 279 0.0 0.0 0.00 0.59 0.59 99 1023.6
20220119053743 42 297 0.0 0.0 0.00 0.59 0.59 99 1023.4
20220119053241 42 297 0.0 0.0 0.00 0.59 0.59 99 1023.4
20220119052740 42 276 0.0 0.0 0.00 0.59 0.59 99 1023.5
20220119052240 42 276 0.0 0.0 0.00 0.59 0.59 99 1023.6
20220119051741 42 277 0.0 0.0 0.00 0.59 0.59 99 1023.7
20220119051239 42 277 0.0 0.0 0.00 0.59 0.59 99 1023.6
20220119050739 42 277 0.0 0.0 0.04 0.59 0.59 99 1023.7
20220119050237 42 277 0.0 0.0 0.04 0.59 0.59 99 1023.4
20220119045736 42 277 0.0 0.0 0.07 0.59 0.59 99 1023.5
20220119045236 42 277 0.0 0.0 0.07 0.59 0.59 99 1023.6
20220119044734 42 277 0.0 0.0 0.00 0.57 0.57 99 1023.3
20220119044233 42 277 0.0 0.0 0.00 0.57 0.57 99 1023.6
20220119043732 42 277 0.0 0.0 0.00 0.57 0.57 99 1023.3
20220119043231 42 277 0.0 0.0 0.00 0.57 0.57 99 1023.5
20220119042729 42 277 0.0 0.0 0.00 0.57 0.57 99 1023.3
20220119042228 42 277 0.0 0.0 0.00 0.57 0.57 99 1023.2
20220119041727 42 277 0.0 0.0 0.00 0.57 0.57 99 1023.2
20220119041226 42 275 0.0 0.0 0.00 0.57 0.57 99 1023.0
20220119040725 42 275 0.0 0.0 0.00 0.57 0.57 99 1023.2
20220119040224 42 275 0.0 0.0 0.00 0.57 0.57 99 1023.2
20220119035722 42 275 0.0 0.0 0.00 0.57 0.57 99 1023.0
20220119035221 42 275 0.0 0.0 0.00 0.57 0.57 99 1023.0
20220119034720 42 275 0.0 0.0 0.00 0.57 0.57 99 1023.2
20220119034218 42 275 0.0 0.0 0.00 0.57 0.57 99 1022.9
20220119033717 42 275 0.0 0.0 0.04 0.57 0.57 99 1023.2
20220119033216 42 275 0.0 0.0 0.04 0.57 0.57 99 1023.1
20220119032715 42 275 0.0 0.0 0.00 0.57 0.57 99 1022.9
20220119032216 42 275 0.0 0.0 0.00 0.57 0.57 99 1023.0
20220119031715 42 275 0.0 0.0 0.00 0.57 0.57 99 1023.0
20220119031214 42 275 0.0 0.0 0.00 0.57 0.57 99 1022.9
20220119030714 42 275 0.0 0.0 0.00 0.57 0.57 99 1023.0
20220119030212 42 275 0.0 0.0 0.00 0.57 0.57 99 1022.7
20220119025711 42 275 0.0 0.0 0.00 0.57 0.57 99 1022.6
20220119025211 42 275 0.0 0.0 0.00 0.57 0.57 99 1022.5
20220119024710 42 276 0.0 0.0 0.07 0.57 0.57 99 1022.6
20220119024209 42 275 0.0 0.0 0.07 0.57 0.57 99 1022.6
20220119023708 42 275 0.0 0.0 0.00 0.55 0.55 99 1022.3
20220119023208 42 275 0.0 0.0 0.00 0.55 0.55 99 1022.6
20220119022706 42 276 0.0 0.0 0.00 0.55 0.55 99 1022.5
20220119022205 42 276 0.0 0.0 0.00 0.55 0.55 99 1022.5
20220119021705 42 275 0.0 0.0 0.00 0.55 0.55 99 1022.5
20220119021205 42 275 0.0 0.0 0.00 0.55 0.55 99 1022.7
20220119020704 42 275 0.0 0.0 0.00 0.55 0.55 99 1022.4
20220119020203 42 275 0.0 0.0 0.00 0.55 0.55 99 1022.6
20220119015702 42 275 0.0 0.0 0.00 0.55 0.55 99 1022.6
20220119015202 42 275 0.0 0.0 0.00 0.55 0.55 99 1022.5
20220119014702 42 276 0.0 0.0 0.00 0.55 0.55 99 1022.4
20220119014201 42 276 0.0 0.0 0.00 0.55 0.55 99 1022.4
20220119013701 42 275 0.0 0.0 0.04 0.55 0.55 99 1022.5
20220119013159 42 275 0.0 0.0 0.04 0.55 0.55 99 1022.1
20220119012658 42 275 0.0 0.0 0.00 0.55 0.55 99 1022.3
20220119012158 42 276 0.0 0.0 0.00 0.55 0.55 99 1022.2
20220119011657 42 276 0.0 0.0 0.07 0.55 0.55 99 1022.2
20220119011156 42 275 0.0 0.0 0.07 0.55 0.55 99 1022.2
20220119010655 42 275 0.0 0.0 0.00 0.53 0.53 99 1022.1
20220119010154 42 275 0.0 0.0 0.00 0.53 0.53 99 1022.2
20220119005654 42 276 0.0 0.0 0.04 0.53 0.53 99 1022.3
20220119005154 42 276 0.0 0.0 0.04 0.53 0.53 99 1022.2
20220119004652 42 276 0.0 0.0 0.00 0.53 0.53 99 1022.3
20220119004151 42 275 0.0 0.0 0.00 0.53 0.53 99 1022.2
20220119003650 42 276 0.0 0.0 0.00 0.53 0.53 99 1022.2
20220119003150 42 276 0.0 0.0 0.07 0.53 0.53 99 1022.0
20220119002649 42 276 0.0 0.0 0.07 0.53 0.53 99 1021.8
20220119002150 42 276 0.0 0.0 0.00 0.52 0.52 99 1021.8
20220119001648 42 276 0.0 0.0 0.00 0.52 0.52 99 1021.7
20220119001147 42 275 0.0 0.0 0.00 0.52 0.52 99 1022.0
20220119000647 42 275 0.0 0.0 0.00 0.52 0.52 99 1021.7
20220119000145 42 275 0.0 0.0 0.00 0.52 0.52 99 1021.6
20220118235645 43 275 0.0 0.0 0.00 0.52 0.52 99 1021.5
20220118235143 43 275 0.0 0.0 0.00 0.52 0.52 99 1021.6
20220118234642 43 276 0.0 0.0 0.00 0.52 0.52 99 1021.4
20220118234141 43 276 0.0 0.0 0.00 0.52 0.52 99 1021.7
20220118233640 43 275 0.0 0.0 0.00 0.52 0.52 99 1021.8
20220118233139 43 276 0.0 0.0 0.00 0.52 0.52 99 1021.5
20220118232637 43 275 0.0 0.0 0.00 0.52 0.52 99 1021.5
20220118232138 43 275 0.0 0.0 0.00 0.52 0.52 99 1021.3
20220118231636 43 276 0.0 0.0 0.00 0.52 0.52 99 1021.3
20220118231135 43 276 0.0 0.0 0.07 0.52 0.52 99 1021.3
20220118230634 43 275 0.0 0.0 0.07 0.52 0.52 99 1021.2
20220118230134 43 275 0.0 0.0 0.00 0.50 0.50 99 1021.1
20220118225632 43 275 0.0 0.0 0.00 0.50 0.50 99 1021.2
20220118225131 43 275 0.0 0.0 0.00 0.50 0.50 99 1020.8
20220118224630 43 275 0.0 0.0 0.00 0.50 0.50 99 1020.9
20220118224129 44 275 0.0 0.0 0.00 0.50 0.50 99 1020.7
20220118223628 44 275 0.0 0.0 0.00 0.50 0.50 99 1020.7
20220118223126 44 275 0.0 0.0 0.00 0.50 0.50 99 1020.7
20220118222625 44 275 0.0 0.0 0.00 0.50 0.50 99 1020.6
20220118222124 44 275 0.0 0.0 0.00 0.50 0.50 99 1020.5
20220118221623 44 275 0.0 0.0 0.04 0.50 0.50 99 1020.5
20220118221122 44 275 0.0 0.0 0.04 0.50 0.50 99 1020.2
20220118220621 44 275 0.0 0.0 0.00 0.50 0.50 99 1020.6
20220118220119 44 275 0.0 0.0 0.00 0.50 0.50 99 1020.3
20220118215618 44 275 0.0 0.0 0.07 0.50 0.50 99 1020.3
20220118215117 44 275 0.0 0.0 0.07 0.50 0.50 99 1020.3
20220118214617 44 275 0.0 0.0 0.00 0.48 0.48 99 1020.5
20220118214117 44 275 0.0 0.0 0.00 0.48 0.48 99 1020.3
20220118213615 44 275 0.0 0.0 0.00 0.48 0.48 99 1020.4
20220118213114 44 275 0.0 0.0 0.00 0.48 0.48 99 1020.4
20220118212613 44 275 0.0 0.0 0.00 0.48 0.48 99 1020.2
20220118212111 44 275 0.0 0.0 0.00 0.48 0.48 99 1020.3
20220118211610 44 275 0.0 0.0 0.04 0.48 0.48 99 1020.2
20220118211110 44 275 0.0 0.0 0.04 0.48 0.48 99 1020.6
20220118210608 44 275 0.0 0.0 0.00 0.48 0.48 99 1020.3
20220118210107 44 275 0.0 0.0 0.00 0.48 0.48 99 1020.3
20220118205607 44 275 0.0 0.0 0.00 0.48 0.48 99 1020.2
20220118205105 44 275 0.0 0.0 0.00 0.48 0.48 99 1020.4
20220118204605 44 275 0.0 0.0 0.00 0.48 0.48 99 1020.1
20220118204104 44 275 0.0 0.0 0.00 0.48 0.48 99 1020.3
20220118203605 44 275 0.0 0.0 0.00 0.48 0.48 99 1020.4
20220118203104 44 275 0.0 0.0 0.00 0.48 0.48 99 1020.2
20220118202603 44 275 0.0 0.0 0.00 0.48 0.48 99 1020.1
20220118202103 44 275 0.0 0.0 0.00 0.48 0.48 99 1020.5
20220118201602 44 275 0.0 0.0 0.00 0.48 0.48 99 1020.3
20220118201101 44 275 0.0 0.0 0.07 0.48 0.48 99 1020.4
20220118200601 44 275 0.0 0.0 0.07 0.48 0.48 99 1020.4
20220118200100 44 276 0.0 0.0 0.00 0.46 0.46 99 1020.3
20220118195559 43 266 0.0 0.0 0.00 0.46 0.46 99 1020.4
20220118195057 43 278 0.0 0.0 0.00 0.46 0.46 99 1020.4
20220118194556 43 278 0.0 0.0 0.00 0.46 0.46 99 1020.5
20220118194054 43 278 0.0 0.0 0.04 0.46 0.46 99 1020.4
20220118193553 43 278 0.0 0.0 0.04 0.46 0.46 99 1020.4
20220118193052 43 278 0.0 0.0 0.00 0.46 0.46 99 1020.7
20220118192550 43 278 0.0 0.0 0.00 0.46 0.46 99 1020.7
20220118192050 43 278 0.0 0.0 0.00 0.46 0.46 99 1020.5
20220118191549 43 278 0.0 0.0 0.00 0.46 0.46 99 1020.3
20220118191047 43 278 0.0 0.0 0.07 0.46 0.46 99 1020.4
20220118190546 43 278 0.0 0.0 0.07 0.46 0.46 99 1020.4
20220118190045 43 278 0.0 0.0 0.00 0.44 0.44 99 1020.4
20220118185544 43 278 0.0 0.0 0.04 0.44 0.44 99 1020.6
20220118185042 43 278 0.0 0.0 0.04 0.44 0.44 99 1020.3
20220118184541 43 278 0.0 0.0 0.00 0.44 0.44 99 1020.5
20220118184039 42 278 0.0 0.0 0.00 0.44 0.44 99 1020.2
20220118183538 42 278 0.0 0.0 0.00 0.44 0.44 99 1020.2
20220118183037 42 278 0.0 0.0 0.00 0.44 0.44 99 1020.2
20220118182536 42 278 0.0 0.0 0.07 0.44 0.44 99 1020.4
20220118182035 42 278 0.0 0.0 0.07 0.44 0.44 99 1020.4
20220118181534 42 278 0.0 0.0 0.00 0.42 0.42 99 1020.3
20220118181034 42 278 0.0 0.0 0.04 0.42 0.42 99 1020.2
20220118180533 42 278 0.0 0.0 0.04 0.42 0.42 99 1020.2
20220118180031 42 278 0.0 0.0 0.00 0.42 0.42 99 1020.3
20220118175531 42 278 0.0 0.0 0.00 0.42 0.42 99 1020.1
20220118175029 42 278 0.0 0.0 0.07 0.42 0.42 99 1020.2
20220118174528 42 280 0.0 0.0 0.07 0.42 0.42 99 1020.3
20220118174027 42 279 0.0 0.0 0.00 0.40 0.40 99 1020.1
20220118173527 42 279 0.0 0.0 0.00 0.40 0.40 99 1020.2
20220118173026 42 279 0.0 0.0 0.04 0.40 0.40 99 1020.2
20220118172525 42 279 0.0 0.0 0.04 0.40 0.40 99 1020.1
20220118172025 42 279 0.0 0.0 0.00 0.40 0.40 99 1019.9
20220118171523 42 279 0.0 0.0 0.00 0.40 0.40 99 1019.9
20220118171023 42 279 0.0 0.0 0.00 0.40 0.40 99 1019.7
20220118170522 42 280 0.0 0.0 0.00 0.40 0.40 99 1019.7
20220118170020 42 280 0.0 0.0 0.00 0.40 0.40 99 1019.7
20220118165519 41 280 0.0 0.0 0.00 0.40 0.40 99 1019.6
20220118165017 42 264 0.0 0.0 0.00 0.40 0.40 99 1019.7
20220118164516 42 264 0.0 0.0 0.00 0.40 0.40 99 1019.6
20220118164014 41 265 0.0 0.0 0.07 0.40 0.40 99 1019.4
20220118163513 42 275 0.0 0.0 0.07 0.40 0.40 99 1019.7
20220118163012 42 275 0.0 0.0 0.00 0.39 0.39 99 1019.4
20220118162511 42 275 0.0 0.0 0.07 0.39 0.39 99 1019.1
20220118162011 42 275 0.0 0.0 0.07 0.39 0.39 99 1019.3
20220118161510 42 274 0.0 0.0 0.04 0.37 0.37 99 1019.0
20220118161010 42 274 0.0 0.0 0.04 0.37 0.37 99 1019.1
20220118160509 42 275 0.0 0.0 0.07 0.37 0.37 99 1019.1
20220118160009 42 275 0.0 0.0 0.07 0.37 0.37 99 1018.9
20220118155507 42 275 0.0 0.0 0.00 0.35 0.35 99 1019.2
20220118155005 42 275 0.0 0.0 0.00 0.35 0.35 99 1019.1
20220118154505 42 275 0.0 0.0 0.04 0.35 0.35 99 1019.2
20220118154005 42 275 0.0 0.0 0.11 0.35 0.35 99 1018.9
20220118153503 42 274 0.0 0.0 0.11 0.35 0.35 99 1018.9
20220118153002 42 274 0.0 0.0 0.16 0.33 0.33 99 1018.8
20220118152501 42 274 0.0 0.0 0.18 0.33 0.33 99 1018.9
20220118152000 42 273 0.0 0.0 0.11 0.31 0.31 99 1019.1
20220118151459 42 277 0.0 0.0 0.11 0.29 0.29 99 1019.1
20220118150958 42 239 0.0 0.0 0.14 0.29 0.29 99 1019.1
20220118150456 42 262 0.0 0.0 0.07 0.28 0.28 99 1019.0
20220118145955 42 230 0.0 0.0 0.04 0.26 0.26 99 1018.9
20220118145454 42 263 0.0 0.0 0.23 0.26 0.26 99 1018.9
20220118144953 42 230 0.0 0.0 0.23 0.26 0.26 99 1018.7
20220118144452 42 278 0.0 0.0 0.04 0.22 0.22 99 1019.0
20220118143951 42 274 0.0 0.0 0.00 0.22 0.22 99 1019.1
20220118143451 42 279 0.0 0.0 0.00 0.22 0.22 99 1018.9
20220118142949 42 267 0.0 0.0 0.00 0.22 0.22 99 1018.8
20220118142448 43 267 0.0 0.0 0.00 0.22 0.22 99 1018.7
20220118141947 42 279 0.0 0.0 0.00 0.22 0.22 99 1018.8
20220118141446 42 279 0.0 0.0 0.00 0.22 0.22 99 1018.7
20220118140944 42 270 0.0 0.0 0.00 0.22 0.22 99 1018.5
20220118140444 43 296 0.0 0.0 0.00 0.22 0.22 99 1018.6
20220118135943 42 281 0.0 0.0 0.00 0.22 0.22 99 1018.7
20220118135441 42 282 0.0 0.0 0.07 0.22 0.22 99 1018.7
20220118134941 43 276 1.0 1.0 0.07 0.22 0.22 99 1018.8
20220118134441 42 256 0.0 0.0 0.00 0.20 0.20 99 1018.5
20220118133942 43 251 0.0 0.0 0.00 0.20 0.20 99 1018.4
20220118133441 43 256 0.0 0.0 0.00 0.20 0.20 99 1018.4
20220118132939 43 256 0.0 0.0 0.00 0.20 0.20 99 1018.4
20220118132438 43 255 1.0 1.0 0.00 0.20 0.20 99 1018.3
20220118131936 43 263 0.0 0.0 0.00 0.20 0.20 99 1018.2
20220118131436 43 245 0.0 0.0 0.00 0.20 0.20 99 1018.1
20220118130934 43 282 0.0 0.0 0.00 0.20 0.20 99 1018.2
20220118130433 43 275 0.0 0.0 0.00 0.20 0.20 99 1018.0
20220118125933 43 268 0.0 0.0 0.04 0.20 0.20 99 1017.9
20220118125432 43 319 0.0 0.0 0.04 0.20 0.20 99 1017.9
20220118124931 42 280 0.0 0.0 0.00 0.20 0.20 99 1017.6
20220118124429 42 292 0.0 0.0 0.00 0.20 0.20 99 1017.5
20220118123929 42 298 0.0 0.0 0.07 0.20 0.20 99 1017.6
20220118123428 42 273 0.0 0.0 0.11 0.20 0.20 99 1017.6
20220118122926 42 275 0.0 0.0 0.04 0.18 0.18 99 1017.6
20220118122425 42 273 0.0 0.0 0.07 0.18 0.18 99 1017.5
20220118121923 42 257 0.0 0.0 0.11 0.18 0.18 99 1017.2
20220118121422 42 270 0.0 0.0 0.04 0.16 0.16 99 1017.2
20220118120923 42 291 0.0 0.0 0.07 0.16 0.16 99 1017.1
20220118120422 42 324 0.0 0.0 0.07 0.16 0.16 99 1016.9
20220118115921 42 262 0.0 0.0 0.07 0.15 0.15 99 1016.9
20220118115420 42 263 0.0 0.0 0.07 0.15 0.15 99 1016.9
20220118114919 42 262 0.0 0.0 0.04 0.13 0.13 99 1017.0
20220118114418 42 251 0.0 0.0 0.11 0.13 0.13 99 1017.4
20220118113919 42 270 0.0 0.0 0.07 0.13 0.13 99 1017.1
20220118113418 42 284 0.0 0.0 0.04 0.11 0.11 99 1017.2
20220118112917 42 265 0.0 0.0 0.04 0.11 0.11 99 1017.4
20220118112416 42 268 0.0 0.0 0.00 0.11 0.11 99 1017.4
20220118111915 42 268 0.0 0.0 0.07 0.11 0.11 99 1017.2
20220118111414 42 284 0.0 0.0 0.07 0.11 0.11 99 1017.4
20220118110913 42 291 0.0 0.0 0.00 0.09 0.09 99 1017.2
20220118110413 42 284 0.0 0.0 0.04 0.09 0.09 99 1017.2
20220118105912 42 283 0.0 0.0 0.04 0.09 0.09 99 1017.1
20220118105411 42 278 0.0 0.0 0.00 0.09 0.09 99 1017.1
20220118104912 42 325 0.0 0.0 0.07 0.09 0.09 99 1017.1
20220118104411 42 273 0.0 0.0 0.07 0.09 0.09 99 1017.2
20220118103911 42 303 0.0 0.0 0.00 0.07 0.07 99 1016.9
20220118103410 41 298 0.0 0.0 0.04 0.07 0.07 99 1016.8
20220118102909 41 274 0.0 0.0 0.04 0.07 0.07 99 1016.9